RH
17 14 11 8 7 7 6 4 2 3 3 3 4 6 8 12 17 25 31 32 35 41 43 46 63 78 77 78 89 90 77 70 75 74 68 69 70 73 77 72 67 61 48 35 25 21 19 15 14 13 14 14 13 13 13 13 14 16 19 16 7 3 4 3 3 3 4 4 5 5 7 9 10 11 10 8 5 5 6 10 13 15 16 16 14 13
15 13 13 12 10 9 8 6 3 3 3 3 4 3 4 6 10 19 27 29 31 34 40 45 55 70 75 74 82 89 79 65 70 78 76 77 75 72 77 80 77 69 55 42 30 22 19 17 15 13 13 13 12 12 14 14 14 14 18 17 8 3 3 4 3 3 4 4 4 5 5 6 8 9 9 6 5 5 7 11 14 16 17 16 15 14
9 10 16 16 13 11 9 8 5 3 3 3 3 3 3 3 7 16 20 25 29 27 34 41 46 60 72 76 76 78 78 66 65 79 84 84 81 74 76 83 81 74 62 46 31 24 20 17 16 14 13 14 11 10 12 13 13 13 17 16 9 4 4 4 4 3 4 4 4 4 4 6 7 7 8 6 5 6 8 12 14 15 17 17 15 14
5 10 20 19 15 13 11 9 8 5 3 3 3 3 4 2 6 16 21 25 28 26 33 40 38 47 61 70 67 64 72 68 62 76 85 84 84 75 72 78 78 75 67 47 30 24 21 18 16 14 14 14 11 8 10 12 12 12 15 16 11 5 4 3 3 3 3 3 4 4 4 6 7 7 8 7 6 6 8 12 14 15 16 16 14 13
4 9 18 20 19 17 12 10 10 7 4 3 3 3 3 4 4 12 22 27 29 26 33 42 37 36 48 56 55 56 64 64 58 68 78 79 77 66 60 67 67 66 61 44 31 27 24 20 16 13 12 12 10 7 9 12 12 11 13 17 13 5 3 4 3 3 3 3 3 3 5 7 8 9 8 8 7 6 8 11 13 14 14 13 12 12
5 7 10 16 22 22 16 12 11 9 6 3 3 3 3 4 4 7 19 29 35 31 27 37 36 28 36 45 47 52 56 55 53 63 76 78 70 55 52 63 62 58 55 43 35 31 26 22 17 12 9 10 10 7 8 11 13 11 11 15 14 6 3 4 3 3 3 3 4 3 5 8 10 10 9 9 7 7 8 10 11 12 11 11 11 12
7 6 6 10 20 24 20 15 13 11 9 5 3 4 3 4 5 5 13 25 36 36 27 30 32 25 28 36 40 45 47 47 49 61 77 78 68 55 52 61 61 58 58 49 43 40 33 27 22 16 11 9 10 7 7 10 12 11 9 13 15 7 3 4 3 3 3 3 4 4 6 10 11 11 10 8 6 6 7 9 10 9 9 9 10 11
8 8 5 6 14 23 22 17 16 13 10 8 4 4 3 3 5 4 9 17 27 37 35 30 27 21 23 29 33 36 37 41 45 58 74 74 67 59 55 63 64 60 61 55 51 48 40 34 28 21 13 9 9 7 6 9 11 11 9 10 14 9 4 4 3 3 3 3 4 4 7 10 12 12 10 8 6 6 7 8 9 7 7 8 8 8
10 11 7 5 9 18 23 22 21 16 12 11 7 5 4 4 4 4 6 11 20 33 37 34 27 16 16 25 31 30 30 34 39 53 68 68 65 61 60 67 66 62 61 57 55 52 44 36 30 24 16 9 7 7 6 8 10 11 8 8 12 11 5 4 4 3 3 3 3 4 6 9 11 11 10 10 8 7 7 7 7 6 6 6 6 6
11 14 10 7 6 10 23 30 26 19 15 13 11 7 5 4 4 4 5 6 14 23 26 31 31 16 8 20 30 26 25 29 36 52 64 65 63 62 67 70 65 62 60 56 56 55 47 37 28 23 19 12 7 6 6 7 9 11 9 7 10 11 7 4 4 3 3 3 4 4 5 7 9 10 11 11 10 8 7 7 7 5 5 5 6 5
10 14 12 9 6 6 20 34 32 24 18 15 14 11 8 5 4 4 4 5 9 12 14 24 32 20 5 13 25 21 21 28 38 53 63 63 62 65 70 69 61 59 60 62 63 62 56 45 32 24 21 16 11 7 5 6 8 11 9 7 8 11 9 5 4 4 3 3 3 4 4 5 7 10 11 11 11 10 8 6 6 5 4 5 5 5
8 13 13 10 8 6 13 30 36 30 22 17 15 14 11 7 4 4 4 4 5 5 7 15 27 22 5 6 18 16 18 30 41 53 61 62 64 70 73 69 62 58 60 68 74 73 67 56 43 34 26 21 16 10 7 6 7 10 10 7 7 10 10 7 5 4 4 3 3 4 4 4 6 9 11 10 10 10 8 6 6 5 4 4 5 5
6 9 13 13 12 9 9 21 35 35 26 18 15 15 13 9 5 4 4 3 3 2 4 10 19 18 3 3 14 14 16 30 43 55 62 64 68 74 75 72 69 65 61 67 76 79 75 65 54 46 35 24 19 15 10 6 6 9 11 9 7 9 10 8 6 5 4 4 3 3 3 3 5 8 10 9 8 7 7 6 5 5 4 4 4 4
6 8 12 15 15 13 10 12 26 36 31 21 16 15 14 12 7 4 3 3 3 2 2 7 13 10 1 2 11 12 14 28 42 55 65 68 71 76 76 72 71 72 68 66 71 76 78 74 64 53 42 29 21 18 12 7 6 8 11 10 8 9 10 9 7 6 5 5 4 3 3 3 4 7 9 8 6 6 6 6 5 4 4 4 4 3
5 7 10 14 15 14 12 10 16 31 37 28 20 17 15 14 9 5 4 2 3 3 2 5 8 5 0 1 9 12 14 26 40 53 66 71 71 76 80 74 67 69 71 66 61 66 75 78 73 61 49 35 24 19 13 7 6 8 10 11 9 8 10 10 9 7 6 6 5 3 3 3 4 7 9 7 6 5 5 5 5 4 4 4 4 3
6 6 8 12 15 15 14 12 11 24 40 38 28 21 16 14 12 8 5 3 3 3 2 4 4 3 2 1 7 13 15 24 37 50 64 72 73 77 81 74 62 62 69 64 54 57 68 73 74 68 55 40 29 21 14 8 6 8 10 11 10 8 8 10 10 8 8 7 6 4 3 3 4 6 8 7 6 5 5 5 5 4 4 4 3 4
11 6 6 12 18 18 17 16 12 18 33 40 35 25 16 14 15 12 8 5 4 3 2 3 3 2 2 1 5 13 15 21 35 51 64 72 76 78 79 74 64 59 65 65 55 54 61 64 67 70 61 46 34 24 15 8 6 8 10 11 11 9 7 9 10 10 9 8 7 5 4 3 4 6 8 7 6 5 5 5 5 4 4 4 4 4
14 9 5 9 17 20 20 19 16 15 23 37 40 29 20 19 19 16 11 6 5 4 2 3 3 2 2 1 4 12 17 20 33 53 67 73 76 76 76 75 68 62 63 65 59 54 55 56 59 66 67 56 42 30 17 8 6 8 10 11 12 10 8 8 8 9 9 8 8 6 5 4 4 6 7 7 6 5 5 5 4 4 4 4 4 4
13 14 9 7 14 22 22 22 23 18 18 33 42 35 29 26 21 15 12 8 5 5 3 3 3 2 2 2 2 9 17 20 30 51 67 72 74 72 73 73 69 65 62 62 60 52 47 48 51 58 67 65 51 35 20 9 6 8 9 11 12 12 11 8 7 8 8 7 7 7 6 5 4 6 7 7 6 5 5 5 4 4 4 4 4 4
9 14 15 9 11 21 26 26 27 24 19 26 41 47 41 31 23 18 14 11 8 6 4 4 3 2 2 2 2 6 14 20 29 46 63 70 72 70 69 70 69 65 61 59 57 51 44 44 46 52 65 71 59 41 26 13 7 7 9 10 12 14 13 10 6 6 7 7 6 6 6 5 4 5 6 7 6 5 5 4 4 4 4 4 4 4
8 10 17 15 11 19 30 30 27 29 25 23 39 56 52 38 27 21 17 14 11 8 6 5 4 3 3 2 2 4 10 17 25 43 61 69 70 69 67 68 70 67 64 61 57 50 45 42 43 49 61 69 63 46 31 18 9 8 9 9 11 14 15 13 8 5 5 6 6 5 5 5 4 4 5 6 6 6 5 4 4 4 4 4 4 4
11 6 13 21 17 15 25 31 28 32 33 25 34 51 51 42 33 24 18 15 11 9 8 6 5 4 3 3 2 3 9 17 23 39 60 68 65 66 65 65 67 67 66 64 58 49 45 43 42 46 52 58 58 48 36 24 14 9 8 9 10 12 15 15 11 7 5 5 6 5 4 4 4 4 5 6 6 6 5 5 4 4 4 4 4 4
17 7 7 19 24 16 20 34 37 40 42 33 31 41 45 45 39 27 19 15 12 10 9 7 6 4 3 3 3 2 7 17 22 31 52 64 61 58 59 61 63 65 65 64 60 52 46 44 45 46 44 47 54 50 39 30 21 13 11 10 9 9 12 15 15 11 7 4 5 5 4 4 4 4 4 5 6 6 5 5 4 4 4 4 4 4
20 12 5 12 25 22 22 38 44 46 53 44 31 34 41 45 44 32 21 17 14 12 11 9 7 5 4 3 3 2 5 14 20 24 37 50 49 44 50 58 60 61 63 63 62 57 51 47 47 44 39 40 49 49 39 32 27 20 15 11 10 9 9 12 15 15 11 6 4 5 5 4 4 4 4 5 6 6 5 5 5 4 4 4 4 4
23 16 7 5 20 29 34 49 56 57 64 56 36 31 38 44 47 40 29 22 17 13 12 10 7 6 5 4 3 3 2 7 15 20 27 36 40 42 51 61 62 62 64 66 66 63 57 53 49 44 37 36 43 46 39 33 29 25 20 15 13 11 10 9 11 14 14 11 7 5 4 5 5 4 4 5 6 5 5 5 5 5 4 4 4 4
26 18 12 4 11 28 40 51 56 57 64 60 41 32 38 45 47 45 38 29 22 15 12 11 8 6 6 4 4 3 2 3 8 14 22 32 42 49 57 64 64 65 68 71 70 66 60 56 50 45 42 41 42 43 41 36 30 27 25 22 19 16 13 10 9 10 12 13 12 9 5 4 4 4 5 5 5 5 5 5 5 5 4 4 4 4
32 20 15 7 6 21 37 43 48 55 61 58 44 33 36 43 45 45 43 35 26 19 13 12 10 6 6 6 4 4 3 3 4 8 16 28 40 49 58 62 63 67 70 71 68 61 55 51 47 43 44 48 48 44 42 40 36 31 28 27 26 23 17 12 9 8 9 11 13 12 10 7 5 4 5 5 5 5 5 5 6 5 4 4 4 4
36 24 17 11 4 14 34 43 50 64 68 59 48 37 34 38 40 42 44 38 29 22 16 14 11 7 7 8 5 4 4 3 3 5 11 23 33 41 49 56 61 66 68 66 61 54 49 50 49 46 47 54 57 53 47 45 43 37 32 31 31 28 24 17 11 9 8 8 10 11 12 12 10 7 6 5 5 5 5 5 5 5 4 4 4 4
38 28 19 14 7 9 29 43 49 65 75 65 53 45 38 36 35 34 38 38 31 25 20 16 13 10 8 8 7 5 4 3 3 3 7 17 27 33 41 50 58 62 62 56 50 45 43 45 46 49 58 64 64 61 54 47 46 42 35 31 31 30 28 22 15 12 10 9 8 9 10 12 12 12 9 7 6 5 5 6 6 5 4 3 4 3
36 31 22 17 12 7 21 41 48 63 82 74 56 52 49 42 33 28 32 36 32 27 23 19 16 13 10 9 7 5 5 3 3 3 5 11 20 27 36 44 50 53 52 46 40 35 36 40 39 46 63 73 70 66 60 50 47 45 38 32 30 30 29 25 19 16 14 13 10 8 8 9 10 12 12 10 8 7 6 6 6 5 4 3 3 3
29 31 26 20 16 8 13 36 51 64 83 81 61 55 55 45 33 27 29 35 36 31 26 23 20 16 11 10 8 6 6 4 3 3 4 7 14 21 27 31 33 35 36 37 34 27 26 36 41 42 55 70 68 62 59 52 47 48 44 35 30 28 28 26 22 18 18 18 14 9 7 8 8 10 11 11 10 8 7 6 5 4 3 3 3 3
23 26 25 21 18 12 10 29 51 62 77 83 67 54 52 45 32 27 28 33 37 36 32 29 24 18 13 11 8 7 6 5 4 3 4 6 10 15 18 18 18 19 20 22 21 14 11 25 38 38 42 56 62 58 57 54 48 48 47 40 32 27 26 25 22 20 20 21 16 10 7 7 7 7 9 10 10 8 7 6 5 3 3 3 3 3
24 21 22 21 19 15 10 21 44 59 71 79 68 52 48 41 30 28 32 33 34 38 37 32 25 19 15 11 7 6 7 5 4 4 4 5 7 8 10 10 10 10 10 10 10 7 6 12 23 28 29 40 50 52 55 56 48 45 48 45 37 30 24 21 20 18 20 20 16 11 9 8 6 6 7 8 9 8 6 5 4 3 3 3 3 3
26 21 19 19 19 18 12 12 34 59 66 62 61 57 49 38 32 36 39 32 30 37 37 30 26 20 15 13 9 6 6 6 5 5 4 4 4 4 4 6 6 5 5 6 5 6 6 6 11 17 22 34 46 51 61 64 49 42 50 50 42 34 26 20 17 15 16 17 14 11 10 8 6 5 6 7 7 7 5 4 3 3 3 3 3 3
28 25 21 18 17 17 14 10 24 50 55 47 57 67 55 38 37 43 42 31 29 37 38 32 30 24 15 14 12 9 9 8 6 4 3 3 4 3 3 5 5 4 5 6 6 6 5 4 5 9 19 38 55 63 69 64 45 37 48 51 45 37 29 21 16 12 12 13 12 11 10 9 6 4 4 5 5 5 4 3 3 3 3 3 3 3
27 25 22 20 18 14 14 11 14 34 47 46 58 72 58 42 41 44 41 31 27 36 40 34 32 25 16 14 14 12 11 9 9 11 9 6 7 8 8 10 11 14 16 15 12 9 5 4 3 7 19 38 54 61 59 49 36 35 46 52 47 39 30 23 16 12 10 10 10 11 10 9 7 4 4 4 4 4 4 3 3 3 3 3 3 3
25 26 23 21 19 14 14 11 7 26 47 49 57 69 59 43 39 39 36 29 25 34 40 35 32 25 16 15 16 15 16 17 24 34 28 15 13 16 20 24 27 28 26 20 14 9 6 5 3 6 18 32 42 49 48 40 35 38 46 53 49 38 29 22 16 11 10 9 9 11 11 9 7 4 3 4 3 3 3 3 3 3 3 3 3 4
21 23 21 20 18 14 14 10 6 22 46 50 52 59 55 45 38 37 41 38 30 34 39 35 32 25 16 16 18 19 27 34 41 49 41 26 24 29 34 39 38 33 25 15 9 6 4 4 3 6 16 26 34 42 43 38 38 45 53 54 46 34 25 19 14 11 9 8 9 10 9 9 7 5 4 4 4 4 4 4 4 3 3 4 6 9
21 22 20 19 18 14 13 10 6 17 41 53 51 51 54 52 46 47 58 53 36 34 39 35 32 26 18 18 21 25 37 47 49 49 43 36 36 38 41 43 39 32 24 13 6 6 5 4 5 7 13 22 30 34 34 35 44 55 59 53 42 30 21 15 11 9 7 6 7 8 8 8 7 6 5 5 5 4 4 4 4 4 5 7 11 17
16 18 16 16 17 14 12 10 7 17 40 52 51 52 56 57 58 66 69 48 27 32 40 35 32 29 20 19 26 32 42 50 50 49 45 40 41 42 43 44 42 37 31 19 8 7 8 7 7 10 15 21 26 28 31 42 57 64 60 52 42 31 22 16 13 10 6 5 5 6 6 7 7 7 6 5 5 4 4 5 6 7 10 15 21 28
11 15 18 16 14 14 12 9 8 21 41 51 51 53 58 62 70 71 53 28 20 29 35 32 32 30 22 20 30 39 45 49 50 49 45 41 41 44 44 45 46 44 38 29 17 10 8 11 15 20 24 25 24 26 36 52 65 67 61 55 48 37 27 24 21 15 9 6 4 4 5 6 6 6 5 4 4 6 7 8 11 15 22 28 34 38
8 10 10 8 15 16 9 9 17 27 41 53 55 53 55 62 65 51 31 28 31 30 31 32 32 31 25 21 30 43 47 47 49 49 46 42 41 44 45 46 49 48 42 34 25 16 12 16 23 28 30 27 21 21 34 53 67 69 65 60 53 44 36 32 28 22 15 8 4 4 4 4 4 4 5 6 8 11 14 18 23 31 37 40 42 43
19 25 26 34 49 38 10 13 35 40 41 51 57 53 51 56 53 37 33 44 41 29 31 35 31 33 30 21 28 43 45 43 48 51 48 43 42 45 47 47 50 51 45 35 26 20 16 17 22 26 27 24 17 15 26 49 66 69 65 63 58 50 43 39 33 26 19 11 8 10 11 11 11 11 12 15 19 23 28 35 41 45 46 46 46 47
65 74 78 84 93 75 45 43 55 50 43 50 58 55 50 52 51 46 50 55 42 32 40 39 30 34 35 22 24 39 41 40 48 53 49 45 44 46 49 50 51 52 48 38 28 23 21 20 21 24 24 20 14 13 23 44 65 70 62 60 60 56 50 46 40 34 28 23 23 27 28 26 27 30 32 33 36 38 41 46 50 50 48 46 44 43
95 99 100 99 99 93 83 78 69 53 44 49 57 56 50 49 53 56 59 56 42 35 44 43 32 34 37 27 23 31 36 41 49 53 51 47 46 49 51 51 52 52 48 39 30 26 28 29 29 30 30 24 18 21 27 37 52 60 56 57 64 64 58 53 49 47 46 42 40 44 46 44 45 48 49 48 48 49 52 56 58 58 58 56 52 49
99 98 100 100 96 89 81 77 69 55 48 50 55 55 51 50 53 57 59 55 39 31 41 45 37 35 37 32 25 26 32 42 50 53 52 49 47 50 51 49 49 51 46 38 32 31 33 38 43 48 47 36 29 34 37 31 29 37 46 57 70 71 63 57 53 54 57 55 53 57 62 60 57 56 57 58 59 60 61 63 63 61 61 62 62 61
100 98 97 98 96 87 79 72 63 54 51 56 58 55 50 52 53 54 57 52 35 28 39 44 38 36 38 34 28 25 30 40 50 54 52 49 47 47 47 44 44 46 43 34 31 35 38 44 54 61 58 46 35 39 44 38 33 39 52 64 73 71 68 67 64 61 63 64 65 68 70 68 63 62 63 65 67 66 65 66 65 61 58 58 58 59
100 100 100 98 93 88 83 73 60 53 53 57 61 56 50 55 59 58 56 50 38 37 45 44 37 35 37 36 31 26 26 35 47 54 53 50 47 43 40 39 38 38 36 31 31 37 40 47 58 64 63 55 46 46 52 52 51 57 64 70 73 73 75 80 78 70 67 69 71 72 71 68 65 65 67 68 68 68 69 69 68 65 64 64 60 57
100 99 99 99 93 87 85 76 62 54 50 52 61 61 55 56 64 65 61 53 42 41 49 55 52 41 35 36 35 27 25 30 41 51 54 51 46 39 36 36 34 32 29 28 32 37 40 48 59 64 65 63 56 55 59 61 62 66 70 73 76 76 79 83 81 75 72 71 72 72 71 69 66 66 68 69 69 70 71 71 71 71 73 74 70 66
101 99 98 101 97 89 87 82 69 57 50 50 57 62 60 59 61 64 61 49 42 45 53 64 69 52 33 34 37 29 25 28 35 45 52 51 46 41 38 36 33 29 28 29 32 37 41 49 59 64 66 68 65 61 62 63 65 68 71 75 78 78 78 80 79 77 76 74 72 71 70 69 68 66 67 68 70 74 76 75 76 78 77 76 75 73
99 98 97 101 100 87 78 80 82 76 63 53 52 59 66 65 66 69 60 43 48 66 68 67 71 56 31 28 35 33 28 29 31 37 46 51 49 43 40 39 35 30 30 30 33 39 44 49 57 62 64 67 68 66 65 66 66 65 66 71 77 76 75 75 75 74 73 72 72 72 70 69 69 67 65 66 70 76 78 77 78 80 79 77 76 74
Wind_Speed
37 36 34 30 26 26 26 27 27 28 29 32 32 31 30 29 27 27 29 30 29 30 29 29 29 28 28 25 22 22 21 20 20 19 18 15 14 14 13 13 13 13 12 10 10 12 12 13 16 16 16 17 19 20 19 18 18 20 20 20 21 23 23 21 20 19 18 17 18 18 18 18 17 16 15 16 16 15 14 14 14 13 12 11 12 13
42 39 31 25 27 29 30 29 28 28 29 33 34 33 32 31 29 28 30 30 31 32 30 29 30 29 28 27 26 25 23 21 20 20 19 17 16 15 15 14 15 14 10 7 8 10 11 11 13 14 14 16 18 20 21 20 20 20 21 21 22 23 23 23 22 21 20 20 20 20 19 18 18 17 16 16 16 16 15 14 14 13 12 11 11 12
45 39 28 25 30 33 32 32 30 29 29 33 35 34 33 31 29 29 29 30 31 32 31 31 31 29 29 30 29 27 24 22 22 23 23 21 19 18 17 16 16 12 9 9 10 10 11 11 12 14 14 15 18 21 22 21 20 20 21 21 21 22 24 24 23 22 22 22 21 19 18 17 16 15 15 15 15 15 15 14 13 12 12 11 11 12
46 37 28 29 34 34 35 34 32 31 31 33 35 34 34 31 29 31 31 32 33 32 32 33 33 32 32 33 31 28 25 25 25 27 28 26 24 22 22 21 18 15 13 13 12 11 11 11 12 14 15 17 19 21 22 20 19 19 21 21 21 22 25 25 24 24 23 22 20 18 16 16 14 13 14 15 15 15 14 14 13 12 11 11 11 11
46 38 33 36 37 35 37 36 34 33 32 33 34 33 32 31 30 32 33 34 34 33 33 35 36 35 35 34 32 28 27 27 27 28 29 28 27 25 24 23 20 18 17 15 12 11 11 11 12 15 18 19 19 20 22 21 20 21 22 23 23 24 25 26 26 25 24 21 19 16 15 14 13 13 14 15 16 16 15 14 13 12 11 11 11 11
46 41 39 42 40 37 38 38 36 34 33 34 33 31 30 31 32 32 34 36 36 35 35 36 39 38 36 35 33 31 30 28 28 29 29 29 29 26 23 21 19 17 16 14 12 10 10 10 11 14 17 19 20 20 23 24 23 23 23 24 25 25 26 27 27 25 23 20 18 16 16 15 15 15 16 16 17 17 15 14 13 12 11 10 10 10
45 42 43 46 44 41 41 40 39 37 36 35 31 29 31 33 34 34 35 37 39 38 36 38 41 40 38 38 36 34 33 31 30 31 30 30 29 25 22 21 19 16 14 13 11 9 8 8 8 11 14 18 20 22 24 25 24 24 23 23 25 25 26 27 27 25 22 20 18 17 18 18 18 19 19 18 17 16 15 14 13 11 10 10 10 10
44 42 45 49 47 45 43 41 39 37 37 33 29 30 34 35 36 36 36 39 40 39 38 40 43 41 40 40 38 37 35 34 34 34 32 31 29 25 23 22 19 16 14 13 12 11 11 10 10 11 14 18 21 22 24 25 24 23 23 23 25 26 26 26 25 24 22 21 19 19 20 20 20 20 18 17 15 15 15 14 13 11 10 10 10 10
43 41 45 50 50 47 44 39 37 37 38 33 31 35 35 35 37 37 39 41 39 40 43 43 44 44 41 38 38 39 38 37 36 34 33 32 28 25 24 23 21 19 17 16 15 14 13 13 13 14 15 18 21 22 23 25 25 24 24 25 26 27 26 25 24 24 23 22 22 21 21 21 20 17 15 14 14 14 14 14 13 12 11 11 11 11
46 43 46 50 52 49 44 40 39 41 40 35 35 37 35 36 39 40 43 42 41 46 48 46 46 46 40 37 39 40 38 37 35 33 33 32 29 27 26 25 24 22 20 18 16 15 14 14 14 14 15 17 18 20 23 26 26 25 24 24 25 27 26 24 23 24 24 24 23 22 22 21 18 14 13 13 14 14 14 13 12 12 11 11 11 11
49 47 48 50 52 51 47 44 43 43 41 38 39 40 37 39 42 43 46 45 46 53 53 47 46 48 40 38 41 40 35 34 34 33 33 32 30 29 28 28 27 25 23 20 17 16 15 15 12 11 13 15 17 18 20 24 25 24 23 23 24 26 26 25 24 24 25 25 25 24 23 21 17 13 13 14 15 16 15 14 13 12 11 12 12 12
53 50 50 51 52 52 51 50 48 45 43 43 45 44 41 41 43 46 48 50 54 58 54 47 46 50 41 37 40 38 34 35 35 34 34 33 31 30 29 29 28 26 25 23 20 18 17 15 11 9 11 14 16 18 19 22 24 24 23 23 23 25 25 25 25 25 25 26 26 26 24 20 16 14 14 15 16 17 17 16 14 13 12 12 12 13
55 52 52 53 53 54 54 53 52 49 48 48 50 49 46 44 46 49 52 55 58 59 55 47 48 52 41 33 38 39 36 37 35 34 35 35 33 32 31 29 28 27 26 25 22 20 17 15 11 11 13 14 16 18 20 22 24 25 23 22 22 23 25 26 26 26 25 26 27 26 24 21 17 16 15 15 16 17 17 16 15 14 14 14 13 13
57 55 55 56 56 56 55 55 55 53 51 52 54 53 50 48 50 52 54 57 58 58 55 48 49 54 41 31 37 39 35 34 34 35 38 37 35 34 33 31 29 29 27 26 24 21 17 15 13 14 15 15 16 19 21 23 25 26 24 22 22 23 25 26 27 27 26 26 26 27 25 22 19 18 17 16 15 15 16 16 15 15 14 14 13 13
59 58 58 59 59 57 56 55 56 55 53 53 53 53 52 50 49 50 52 55 57 59 57 50 51 55 43 31 33 35 35 36 36 37 39 39 37 36 36 34 31 30 29 28 25 22 18 16 15 16 18 17 16 18 20 23 26 27 25 23 23 23 24 26 27 27 27 27 27 27 26 23 21 21 19 16 15 14 15 16 16 15 15 14 13 13
60 60 59 60 60 58 57 57 56 57 56 54 53 54 55 51 48 48 49 51 53 57 57 54 54 54 41 28 30 35 37 38 37 38 39 39 37 37 38 37 33 32 31 30 28 24 21 20 19 19 20 18 17 18 20 22 25 27 26 25 24 24 25 26 27 28 28 28 28 27 26 24 23 23 20 17 14 13 14 17 17 16 16 15 14 14
58 61 60 61 61 59 59 58 56 57 58 57 56 56 55 51 48 50 50 50 52 55 58 57 54 51 39 27 30 36 38 38 38 39 40 39 38 38 39 38 36 34 33 32 30 26 24 23 21 21 21 19 17 16 18 21 24 27 28 26 26 25 26 27 28 29 30 30 29 28 27 25 25 24 22 19 16 15 16 17 18 18 17 16 15 15
54 60 61 62 62 61 60 59 57 56 58 58 57 56 54 52 52 53 53 53 53 55 59 57 52 49 41 31 32 36 38 39 39 40 41 40 40 39 39 39 37 35 34 34 32 29 27 26 24 23 22 21 18 17 19 22 25 28 28 27 26 26 26 27 29 30 31 31 31 29 28 27 27 26 24 22 19 17 17 18 19 19 18 18 17 17
50 57 61 62 62 61 60 60 58 56 57 58 58 56 56 55 56 56 57 56 55 57 59 56 52 48 42 34 32 35 37 38 39 40 41 41 41 39 38 38 37 36 35 35 33 31 30 29 28 26 25 24 22 20 21 24 26 28 29 28 27 27 28 29 30 31 32 32 32 31 30 29 29 28 26 24 20 18 18 18 19 20 19 19 19 19
47 54 60 62 62 62 61 61 60 57 57 58 58 58 58 58 57 56 57 57 55 57 57 54 51 47 41 33 31 33 36 37 39 41 42 41 40 39 37 37 37 37 36 35 34 32 30 30 30 28 27 26 24 22 23 25 27 28 30 30 29 28 28 29 30 31 32 33 33 33 32 31 30 30 28 25 22 20 19 20 21 21 20 20 20 20
46 51 57 60 61 62 63 62 61 58 57 59 60 61 60 59 58 57 58 57 55 56 56 53 50 46 39 34 31 31 35 38 39 41 42 41 40 38 38 38 38 38 36 35 34 32 30 30 30 30 29 28 27 26 26 27 28 29 30 30 30 29 28 28 28 30 31 32 33 33 33 32 31 31 29 26 23 22 21 21 21 22 22 21 21 20
46 49 54 58 60 62 64 63 61 59 59 60 62 63 62 61 60 60 60 59 58 58 57 54 52 45 38 36 34 31 33 37 38 40 41 41 39 38 38 38 39 38 37 36 34 31 30 30 30 31 31 31 31 29 28 28 28 30 30 30 30 30 29 28 28 28 29 30 31 32 33 33 33 32 31 28 25 23 23 22 22 22 22 22 22 21
47 49 52 55 57 60 62 62 61 60 59 61 62 64 63 63 63 62 62 61 59 59 58 56 55 47 38 37 35 32 33 37 38 40 41 40 39 37 37 37 38 38 37 36 35 33 31 31 31 32 33 33 32 31 29 29 29 30 30 30 30 30 29 29 29 28 29 29 30 32 33 34 34 33 32 29 27 25 24 24 23 23 22 23 23 22
48 48 50 52 54 56 59 61 62 60 59 61 63 64 65 65 64 63 63 62 60 60 59 58 57 47 38 37 36 33 33 37 38 39 41 41 40 38 37 38 38 37 37 36 35 34 32 32 32 33 34 33 33 33 31 30 30 30 31 30 30 29 30 31 30 30 29 29 30 32 33 33 34 34 32 30 28 27 26 25 25 24 24 24 24 23
49 49 49 50 51 53 55 59 62 61 60 61 63 64 65 66 66 63 63 63 62 61 59 58 58 47 37 36 36 33 33 36 38 39 40 41 41 40 39 39 37 36 35 36 35 33 32 32 32 31 32 33 34 35 33 31 31 31 31 30 29 29 30 31 32 31 30 30 30 31 32 32 33 33 32 31 29 28 28 27 26 25 25 25 25 24
49 50 49 49 51 52 55 60 64 64 62 61 63 64 65 67 66 65 64 64 63 62 58 58 58 47 36 34 35 34 34 35 37 39 39 40 42 42 41 40 38 36 36 36 34 32 31 31 31 30 30 32 35 36 34 32 30 30 31 30 30 30 30 31 32 32 31 31 30 30 30 31 32 32 32 31 31 30 29 28 27 27 27 26 26 25
50 50 50 50 51 51 54 60 65 65 64 63 64 65 66 67 67 67 66 65 64 62 59 58 56 45 36 34 35 35 36 36 37 38 39 40 42 43 43 42 40 39 37 36 33 31 30 30 30 30 30 32 35 37 35 32 30 30 30 31 31 31 31 31 32 33 33 32 31 30 30 30 30 31 32 32 32 32 31 29 29 28 28 27 27 26
50 50 50 50 51 50 51 57 63 64 63 63 64 65 66 68 68 69 68 66 64 62 60 59 55 44 36 36 36 36 37 38 38 39 41 42 43 44 44 45 44 43 40 37 35 33 31 30 30 30 31 31 34 37 36 34 32 31 31 31 32 32 31 32 32 33 34 33 32 31 29 29 30 31 32 34 34 33 32 31 30 30 29 29 28 27
49 49 50 50 50 49 50 55 61 64 63 63 64 64 66 68 69 69 69 67 65 63 61 59 53 44 38 36 35 35 38 39 40 41 43 44 45 45 46 47 48 46 43 41 39 36 34 33 32 32 31 31 33 35 35 34 33 32 32 33 33 33 33 33 33 33 34 34 32 32 31 31 31 31 33 34 34 33 32 31 31 31 30 29 28 28
46 48 50 51 50 49 49 53 59 64 64 63 63 64 65 68 70 70 69 67 66 65 62 58 52 44 39 35 33 34 37 40 41 42 44 46 48 49 49 49 49 48 47 45 42 40 37 36 35 35 33 32 32 33 34 34 34 34 34 34 34 34 34 33 34 34 34 34 33 33 33 33 33 32 33 33 33 32 32 32 32 32 30 30 29 29
41 45 48 51 50 47 48 51 56 62 65 64 63 63 65 68 69 69 69 68 68 66 63 58 50 43 40 36 33 33 38 42 43 44 46 48 50 51 51 51 50 50 49 48 47 46 42 39 38 38 37 34 33 33 33 34 34 34 36 36 35 35 34 34 34 34 34 34 34 34 35 34 33 33 33 33 33 32 32 32 33 32 31 30 30 30
38 42 45 50 50 47 46 50 54 59 64 66 64 63 65 67 68 69 68 68 69 67 63 58 50 42 40 37 34 35 39 42 43 44 45 48 51 52 53 52 50 49 50 51 51 49 46 44 42 41 39 37 35 34 33 34 35 35 37 38 36 35 35 34 34 34 33 34 35 35 35 34 33 33 33 34 33 33 32 33 33 32 31 31 30 30
36 39 42 47 49 47 45 48 53 57 62 67 66 62 63 66 68 68 68 69 70 67 63 59 49 42 41 37 35 39 42 42 43 43 43 46 49 50 49 48 49 50 52 52 50 46 45 45 45 43 40 38 37 35 33 34 36 35 36 37 37 36 35 34 33 33 34 35 36 35 34 34 33 33 34 34 34 34 33 33 32 32 31 31 31 30
37 39 40 44 47 46 45 47 51 55 61 68 66 60 62 66 67 67 69 70 70 66 63 59 50 43 42 38 37 41 42 41 41 41 41 44 46 46 47 48 49 50 50 48 46 44 44 46 46 45 41 39 39 36 33 35 37 36 36 38 38 36 35 34 33 34 34 36 36 35 34 34 33 33 34 35 35 35 34 33 32 32 31 31 30 29
36 38 39 41 43 44 45 47 51 56 62 68 66 60 62 66 66 67 69 70 70 66 63 59 51 45 43 41 39 40 40 39 39 38 39 42 44 46 46 45 44 43 41 40 40 41 43 46 48 47 44 41 39 36 35 38 38 35 36 38 38 36 35 34 34 34 35 36 36 35 34 33 32 32 33 35 35 34 34 33 33 31 30 29 28 27
35 38 38 40 41 42 44 46 51 57 62 66 66 62 62 65 66 67 69 71 70 66 63 59 51 46 45 43 40 40 40 38 38 37 37 39 41 41 38 35 33 32 32 34 35 36 40 44 47 48 46 42 39 37 38 39 36 34 36 39 39 37 35 35 35 35 36 36 36 35 34 32 31 32 33 34 34 33 33 32 31 29 28 27 26 26
34 36 37 38 40 40 42 44 48 54 59 63 66 64 62 64 66 66 68 71 70 66 63 59 52 48 47 44 42 42 41 40 38 37 36 37 36 33 29 27 27 27 29 32 33 34 36 40 45 48 46 42 39 38 39 39 36 35 38 39 38 37 36 36 35 35 35 35 35 34 33 32 31 31 32 32 32 32 31 30 29 28 27 26 25 25
35 36 36 37 39 39 40 42 45 52 58 61 65 65 63 63 65 66 67 70 69 65 63 59 52 49 48 45 44 45 44 43 41 39 38 36 33 29 28 27 27 26 27 29 31 32 34 37 42 45 44 42 39 39 39 38 36 37 39 39 38 37 36 36 35 35 34 34 34 34 32 31 30 30 30 30 30 30 30 30 29 28 27 26 26 26
35 36 36 37 39 40 40 40 44 51 57 58 62 65 63 62 64 65 65 68 68 65 62 58 53 51 49 46 46 47 48 45 43 41 39 36 33 32 31 29 27 26 26 27 27 28 31 35 39 42 42 40 38 37 38 38 37 38 38 38 37 37 36 35 34 34 33 33 34 33 32 30 29 29 29 29 30 30 30 30 30 29 28 28 28 28
36 36 36 37 40 40 40 39 41 49 54 55 59 65 63 61 63 65 64 68 68 64 61 58 54 52 50 47 47 50 50 48 44 41 39 37 37 37 35 31 27 25 24 25 26 28 31 35 37 39 39 38 36 36 38 38 38 38 38 37 37 37 36 35 34 34 33 33 33 32 31 30 29 29 29 29 30 31 31 31 30 30 29 28 28 28
34 34 35 37 39 39 38 38 40 47 51 52 56 64 63 60 62 65 66 67 66 62 60 58 55 52 50 48 49 52 52 49 45 42 40 41 42 41 38 34 29 25 24 23 25 28 32 34 35 37 37 36 37 38 40 39 39 38 38 38 37 36 36 35 35 33 32 31 31 30 30 30 30 30 30 30 31 31 31 30 29 28 28 28 28 28
31 32 34 36 37 37 38 38 41 46 49 49 52 61 64 61 63 66 66 64 64 62 58 57 56 53 50 49 51 54 55 51 46 44 44 46 46 43 40 36 32 29 26 24 24 27 32 34 35 37 37 38 39 40 40 40 40 39 38 37 35 35 35 34 33 31 30 29 29 29 29 29 29 30 30 30 30 29 29 28 27 27 27 27 27 26
26 27 29 32 34 36 38 40 42 46 47 47 50 57 63 63 63 66 65 62 62 61 57 56 57 54 51 51 52 54 56 53 48 47 48 49 49 46 42 38 35 32 29 26 24 26 31 34 36 37 38 39 39 39 40 40 40 40 37 34 33 34 34 32 29 28 27 27 27 28 27 27 28 28 28 28 28 27 27 27 26 26 27 27 26 26
24 23 23 26 31 36 39 41 43 44 44 45 48 54 61 63 62 62 62 60 60 59 54 54 57 55 52 52 53 55 57 55 50 49 51 52 51 48 44 41 37 35 33 29 24 26 31 34 36 37 38 38 37 36 37 39 41 40 36 31 32 33 32 30 28 27 27 27 27 27 27 26 27 27 27 27 27 27 27 27 26 26 26 27 27 27
25 22 21 23 28 34 39 41 41 41 41 43 47 53 60 63 60 59 60 59 59 58 53 51 56 56 53 52 53 55 58 57 53 52 53 54 53 49 47 44 41 38 37 31 26 28 32 35 36 37 37 37 34 32 32 36 40 40 35 32 33 34 34 33 32 31 30 29 29 29 28 28 28 28 28 28 28 28 27 27 27 26 26 25 25 25
21 19 20 24 28 32 36 39 40 40 39 42 47 53 59 61 58 57 58 58 58 58 53 49 54 57 55 53 54 57 59 58 55 54 55 56 54 52 49 47 44 42 39 33 29 31 36 38 38 38 38 36 33 29 28 30 33 35 35 35 35 36 37 37 36 34 33 32 32 31 31 31 30 30 30 30 29 29 29 30 29 28 27 27 25 25
19 16 20 26 29 31 34 36 39 40 40 41 47 53 57 58 55 55 58 58 57 57 53 50 52 56 57 55 55 58 60 60 58 56 56 57 56 54 52 50 47 45 42 36 32 34 39 41 41 40 40 37 32 28 27 27 28 31 35 36 37 38 39 40 38 37 35 35 35 35 34 34 34 33 33 32 31 32 32 31 31 30 29 28 28 27
18 16 20 26 30 32 33 35 38 40 40 42 46 52 56 57 53 54 57 58 56 56 54 51 51 55 58 56 55 58 61 62 61 59 58 58 58 56 53 51 49 46 43 37 34 36 41 44 44 42 41 38 34 31 28 26 27 31 35 36 37 37 38 39 39 40 40 39 38 38 38 38 38 37 36 35 35 34 34 33 32 32 31 30 30 30
19 19 20 25 30 32 33 34 37 39 41 44 46 51 56 57 54 53 55 56 56 55 53 50 51 55 59 58 57 59 62 63 63 62 60 60 59 57 55 52 50 47 43 39 36 37 42 46 46 45 44 42 38 35 32 30 29 31 33 35 36 36 37 38 38 40 42 43 43 41 41 41 42 41 40 39 38 37 36 36 35 34 33 33 33 32
21 21 19 23 29 31 32 34 36 38 41 45 47 51 54 55 54 53 54 55 54 53 52 49 49 54 60 60 59 60 62 63 64 64 63 61 60 58 56 54 51 48 44 40 39 39 42 47 48 46 46 45 42 38 36 34 31 31 32 34 35 36 37 38 38 39 40 42 44 45 45 45 45 45 44 43 42 40 38 38 37 36 36 36 35 35
21 22 19 22 27 30 31 33 35 37 41 45 48 52 54 55 55 53 54 55 54 51 50 49 50 54 59 62 62 61 61 62 64 64 63 62 61 60 57 55 53 49 45 42 41 41 43 47 49 48 47 47 45 42 39 37 35 33 33 35 36 38 39 40 40 41 41 41 42 44 46 48 48 47 47 47 45 43 41 40 39 39 38 38 38 37
Wind_Direction
234 232 231 233 236 237 235 233 232 230 231 233 234 233 232 232 229 224 224 223 220 218 214 209 205 207 210 207 212 224 225 221 219 213 205 196 186 182 191 206 217 228 232 234 236 231 219 206 202 200 196 191 186 184 183 182 182 182 181 181 179 178 177 175 173 172 169 166 165 166 167 168 167 163 159 156 155 154 151 141 134 131 129 127 126 124
235 231 227 228 231 232 230 228 226 223 225 230 233 233 233 232 229 225 225 225 224 221 216 212 208 208 212 211 212 218 224 226 220 212 206 198 192 187 189 200 214 228 236 236 234 232 224 211 203 200 197 193 186 184 185 184 183 183 182 182 180 177 178 177 175 174 173 173 173 174 172 170 168 166 162 158 154 152 149 142 137 134 133 133 133 131
235 232 225 223 228 229 228 226 223 219 218 225 230 231 233 233 231 230 228 227 227 224 219 218 212 207 212 216 213 212 217 227 223 213 206 199 195 191 188 196 210 222 231 227 219 217 217 211 200 195 193 193 189 187 187 185 183 182 183 184 180 177 179 179 178 178 178 179 179 177 173 170 168 165 159 155 152 151 148 144 141 139 138 138 138 137
236 233 225 225 227 227 228 226 223 219 215 219 224 226 230 232 231 231 231 229 228 225 222 222 216 209 212 215 213 211 214 224 224 215 208 200 195 195 192 192 197 203 212 217 212 208 212 209 200 192 189 191 192 189 187 184 182 183 184 183 182 180 180 181 181 182 183 182 180 175 171 168 163 159 155 154 154 153 151 149 146 145 144 142 141 138
236 231 223 224 225 224 226 226 224 221 216 217 219 220 224 229 230 231 232 232 231 226 223 226 223 214 213 215 213 212 216 222 225 220 214 206 200 201 197 189 188 192 201 207 206 204 205 203 199 193 190 190 191 190 187 185 183 185 185 183 184 184 181 182 185 186 186 183 178 172 167 160 154 154 156 158 159 160 160 156 152 151 149 147 142 136
234 228 223 224 224 222 224 225 224 223 218 218 218 215 218 224 228 229 231 233 233 229 223 227 228 218 214 216 213 213 216 219 223 222 219 213 209 208 200 190 188 192 198 203 205 205 203 205 205 198 193 190 189 190 190 187 185 186 187 185 185 185 184 185 187 187 187 183 176 170 165 160 156 159 164 169 169 168 165 159 155 155 154 150 141 133
233 227 224 225 224 221 222 222 221 222 219 217 216 214 214 218 223 225 228 231 232 230 224 226 230 220 214 216 214 213 214 215 219 219 218 217 215 212 202 192 190 191 194 199 204 206 201 200 204 199 194 192 191 192 191 190 188 187 187 187 187 187 186 188 189 186 185 182 175 171 169 167 168 171 175 177 174 169 165 161 158 157 155 149 138 131
231 227 225 226 224 222 221 220 220 222 221 216 213 216 215 213 216 220 224 230 232 231 228 228 230 224 215 213 214 213 211 211 214 215 216 217 217 212 202 194 190 188 190 195 199 202 197 190 191 192 193 194 194 194 191 190 190 188 187 189 190 189 189 190 188 185 184 181 177 176 175 175 179 182 181 179 173 167 166 165 162 159 156 147 136 132
228 225 227 227 225 222 221 221 220 222 221 214 212 218 217 212 212 215 220 226 229 231 229 227 230 227 216 211 214 214 210 209 210 211 214 216 217 211 200 194 191 189 190 194 199 204 203 196 191 192 195 197 196 194 191 191 191 189 188 190 191 190 190 189 187 185 184 181 181 182 181 184 189 188 182 178 173 171 171 169 164 161 157 147 138 135
224 221 224 226 226 222 219 219 219 220 218 212 213 219 217 214 212 212 216 220 224 229 227 224 229 230 218 206 213 214 208 208 208 209 213 215 215 207 197 195 194 191 191 193 200 210 216 213 203 197 197 199 199 196 194 192 191 191 190 191 192 191 189 187 186 186 185 182 184 186 189 193 194 185 179 177 175 177 178 174 170 165 158 149 142 141
222 219 221 224 225 222 217 216 217 218 215 211 214 218 216 215 213 212 214 215 219 226 225 221 226 233 221 203 210 213 205 206 208 209 213 215 211 203 196 198 197 193 191 193 202 214 225 229 224 213 202 198 199 198 196 195 192 191 191 192 193 192 189 185 185 187 186 185 187 190 194 199 193 180 178 179 178 181 182 180 176 168 159 153 149 150
222 218 219 222 224 222 217 215 215 214 212 210 214 217 215 214 214 213 213 214 218 224 224 218 222 232 223 201 207 211 203 204 207 207 213 214 209 201 198 201 201 197 193 193 202 212 223 231 235 231 213 200 198 197 196 195 193 192 191 193 193 192 190 186 185 188 189 188 189 193 198 199 191 182 184 185 185 185 184 183 179 169 163 160 159 161
222 217 218 220 221 222 219 215 214 213 211 209 212 215 214 212 214 214 213 215 220 225 224 216 218 229 223 198 204 210 203 202 203 204 212 213 207 201 200 201 202 202 200 197 200 208 218 226 228 228 221 207 198 197 196 194 193 192 191 192 192 190 190 188 186 188 191 192 193 195 198 199 191 188 192 194 193 191 187 184 178 172 169 168 169 170
221 217 216 218 219 220 220 216 214 213 212 211 212 214 214 213 214 214 214 216 221 226 226 218 218 228 223 198 202 209 202 200 200 203 210 212 208 202 202 203 202 203 204 202 201 202 211 220 222 224 225 215 203 200 198 194 191 190 190 190 190 189 190 189 188 188 190 193 197 198 199 197 192 192 198 200 200 197 191 185 181 177 175 174 175 173
221 217 215 217 218 218 219 218 215 213 213 213 213 215 216 215 216 218 218 219 221 226 227 220 220 230 225 200 198 206 202 198 199 203 207 211 209 205 205 207 205 202 204 206 203 199 203 213 219 223 227 221 210 204 200 196 191 189 188 188 188 188 189 190 190 188 188 192 198 199 199 197 192 194 202 205 203 200 194 189 185 181 178 178 177 172
221 217 214 217 218 217 218 218 216 213 212 213 214 216 217 215 217 221 223 225 226 228 229 224 223 230 227 202 195 204 203 198 197 201 205 208 209 207 208 210 208 205 204 209 208 199 198 208 213 220 226 225 217 208 202 197 193 189 189 189 188 187 187 189 190 189 188 192 196 198 199 197 193 195 202 207 204 198 194 192 190 186 182 180 176 172
223 217 214 215 217 217 217 218 217 214 212 212 214 216 216 214 216 221 223 225 227 229 231 229 227 231 230 208 196 204 204 197 195 199 202 205 208 209 210 212 212 210 208 210 211 202 198 205 210 217 226 229 223 212 202 198 195 192 191 190 189 188 187 189 190 189 190 192 193 195 197 196 194 196 201 205 204 198 194 194 193 190 186 182 178 176
225 219 216 216 216 215 216 218 218 215 213 213 215 216 216 215 217 219 221 223 225 228 231 231 228 230 230 214 200 203 204 198 195 198 200 203 206 209 211 213 215 215 213 212 213 208 202 203 207 211 221 229 228 216 203 197 195 194 193 193 191 189 189 190 191 192 192 192 193 194 194 194 194 196 200 203 203 198 195 197 197 194 191 187 183 182
228 221 219 217 216 214 215 217 218 216 213 213 215 216 216 217 217 218 219 221 222 226 230 230 228 227 225 216 203 202 204 200 196 198 200 202 206 209 212 215 218 219 218 215 214 213 208 204 205 207 214 224 226 219 207 199 196 194 194 195 193 191 192 193 194 194 195 194 193 193 193 193 194 196 201 203 202 199 197 199 201 200 197 192 188 188
231 225 221 219 218 215 213 216 218 216 213 212 213 215 216 217 218 219 221 222 223 227 230 230 228 225 221 217 207 201 203 202 199 199 201 203 206 209 213 217 220 222 223 220 217 216 213 208 207 206 210 219 224 221 212 204 198 196 196 195 195 195 196 198 198 198 198 197 195 194 193 193 194 197 201 202 201 199 199 202 203 204 202 198 194 194
232 228 222 220 220 217 213 215 216 216 214 211 212 214 215 216 217 219 222 223 224 228 231 232 231 225 219 217 211 202 201 202 202 200 201 203 205 208 212 216 219 221 224 225 222 219 216 212 210 208 209 214 219 220 215 208 200 198 198 197 197 198 199 201 202 203 202 200 198 197 195 194 195 198 201 202 201 200 201 204 206 206 204 202 200 199
233 229 223 220 221 219 214 213 214 216 215 212 212 213 214 215 217 218 220 222 222 225 229 230 230 224 217 216 214 204 199 199 202 202 200 202 205 207 211 214 217 219 223 226 226 223 218 214 213 213 212 212 215 218 216 211 204 200 199 198 199 200 201 202 204 205 206 205 203 200 197 195 196 199 202 202 201 201 202 205 209 209 207 206 205 205
233 230 225 221 221 219 216 213 213 215 216 214 213 213 213 215 217 218 220 221 222 225 227 229 229 221 212 213 213 205 197 195 198 201 200 202 205 207 211 214 216 219 221 224 227 226 221 217 214 215 216 215 214 216 216 213 209 203 200 200 200 201 203 205 205 205 206 207 206 204 201 199 199 200 202 202 202 202 204 206 209 210 209 210 210 209
233 230 226 222 220 219 217 216 214 214 215 215 213 212 212 214 217 218 220 221 222 224 227 229 230 220 209 211 211 203 197 194 195 198 199 202 206 208 211 213 216 218 219 222 226 225 224 222 218 216 219 218 215 216 216 214 211 206 203 201 200 200 204 206 208 208 206 206 208 207 205 203 203 203 203 203 203 204 205 207 209 210 211 212 212 212
231 229 226 222 219 217 216 216 215 214 214 214 213 213 212 213 215 218 220 222 222 224 225 228 230 222 207 209 211 204 198 195 194 195 196 200 205 207 209 211 213 215 216 219 224 226 226 227 225 222 223 222 218 217 217 216 214 210 206 203 200 202 205 206 209 211 209 208 209 210 209 208 207 206 205 205 205 206 207 208 209 210 212 213 213 214
230 227 225 222 219 215 214 215 214 213 212 213 213 212 212 213 214 216 219 222 223 224 224 227 231 222 206 208 212 205 200 197 195 195 195 196 201 204 206 208 210 212 213 216 220 224 226 227 226 223 225 227 223 220 220 219 217 215 210 205 202 204 205 206 208 211 211 211 210 210 211 211 211 210 209 209 209 209 209 210 210 211 212 213 213 214
228 226 224 223 220 216 214 214 214 213 212 212 212 212 212 213 213 215 218 220 222 224 224 227 230 222 207 208 211 207 205 202 197 196 195 195 198 201 204 206 208 209 209 210 213 216 219 222 222 219 220 225 225 222 222 221 220 218 214 209 206 206 207 207 208 209 211 212 212 211 211 212 213 213 213 213 213 213 212 211 212 212 212 212 213 214
226 225 224 223 221 217 214 213 214 214 212 211 212 212 212 213 213 214 217 219 221 223 224 226 228 221 211 209 210 209 210 207 201 198 196 195 196 199 202 205 207 207 207 205 206 208 212 215 216 214 214 218 222 223 223 223 222 221 217 213 210 209 209 209 209 210 211 212 212 212 212 213 214 215 215 216 216 216 215 213 213 213 213 213 213 214
224 224 224 223 222 218 214 212 213 213 212 211 211 211 212 213 213 214 216 218 221 223 224 225 225 220 214 212 210 211 213 210 206 202 197 195 196 198 201 203 204 205 204 204 203 205 209 211 210 208 209 213 217 221 223 224 224 224 221 217 214 212 211 210 210 210 212 212 212 212 212 213 214 215 216 217 218 218 217 216 215 214 214 213 213 213
224 223 223 224 222 218 215 212 212 212 212 211 210 210 212 213 213 214 215 217 220 223 223 224 223 218 215 213 210 212 216 213 208 203 198 196 197 198 200 202 203 203 203 203 205 207 209 212 210 206 204 207 212 217 221 224 227 226 223 220 217 216 215 213 212 212 212 212 212 213 213 213 214 215 217 218 219 219 218 217 216 215 214 214 213 213
224 223 224 224 223 219 216 213 211 212 212 211 209 209 211 212 213 213 215 216 220 222 223 223 221 216 214 213 209 210 215 214 210 205 200 197 198 199 201 202 203 203 204 205 208 209 209 211 212 208 204 205 211 217 221 225 227 226 223 221 220 219 218 217 216 215 214 213 213 213 214 214 215 215 217 218 220 220 219 217 216 216 214 213 213 213
223 224 224 225 223 219 217 214 211 211 211 211 209 208 210 212 213 213 214 216 219 221 222 222 218 212 211 212 208 207 211 213 211 207 202 199 199 201 204 205 204 205 207 209 211 211 209 209 212 211 207 205 210 216 219 223 226 225 223 222 222 221 221 220 219 218 216 214 214 215 215 216 216 216 217 217 219 219 219 217 217 216 215 214 214 215
222 223 225 227 225 220 218 217 212 210 211 211 208 207 209 211 212 213 214 216 218 220 221 220 215 208 208 208 206 207 209 211 210 207 203 202 202 204 206 207 207 209 211 214 215 214 212 212 214 215 211 207 210 214 216 221 225 225 224 224 223 224 224 223 222 220 218 216 215 215 217 217 217 217 217 217 217 218 218 217 217 217 217 216 216 217
222 222 224 227 226 222 220 219 213 210 211 210 206 206 209 211 211 213 214 216 217 218 220 219 212 205 205 203 203 207 209 210 210 207 203 201 202 204 206 208 211 213 215 218 219 219 217 216 217 218 213 209 210 211 213 220 224 223 222 223 224 225 224 223 222 222 220 218 216 216 217 218 218 217 217 216 217 216 216 216 217 218 218 218 219 220
223 222 223 226 226 223 221 220 216 211 209 208 205 205 209 210 210 213 214 216 217 217 218 218 210 203 202 199 200 207 209 209 209 205 201 199 199 201 204 208 212 214 217 219 219 219 218 217 217 217 213 209 208 209 213 220 222 221 221 223 224 225 224 222 221 221 221 219 217 217 218 219 218 217 217 216 217 216 215 216 217 218 219 220 221 220
225 223 223 224 226 224 221 221 218 211 207 207 206 205 207 209 210 212 214 215 216 215 216 216 209 202 200 197 198 205 207 206 205 200 197 197 198 200 203 206 209 212 215 218 219 219 219 217 217 216 212 209 208 209 215 220 221 221 222 222 223 225 224 221 221 221 221 219 218 217 218 219 217 216 216 216 216 216 216 217 218 220 220 220 219 218
225 224 222 222 224 225 223 222 219 211 207 208 206 204 206 208 209 211 213 215 216 215 215 214 207 200 198 195 196 202 203 200 197 194 194 198 200 200 200 204 210 214 218 221 220 219 218 217 215 213 210 209 209 211 216 219 220 220 221 221 222 224 223 221 221 221 221 220 218 218 218 218 217 216 215 216 216 216 217 218 219 219 219 217 216 216
226 222 221 221 222 223 222 221 218 211 207 207 206 204 205 207 209 210 213 216 216 214 214 212 206 200 197 194 194 198 198 195 193 192 196 200 200 198 198 204 211 215 219 222 221 218 217 215 212 211 210 208 209 212 217 219 219 220 220 219 220 221 221 221 222 222 221 220 219 219 218 218 217 216 215 215 215 216 217 217 217 217 216 214 215 216
223 220 220 219 220 221 221 220 218 211 206 205 206 204 204 206 208 210 213 216 216 214 213 211 204 200 197 194 193 195 195 194 194 195 198 199 196 194 196 199 204 209 215 219 217 212 211 212 211 210 209 207 208 213 216 216 217 217 217 217 219 219 219 221 221 221 220 220 219 219 219 218 217 216 214 213 213 213 214 214 214 214 214 215 217 219
217 217 217 217 219 221 220 219 217 210 205 204 205 204 204 206 208 210 213 215 215 213 212 210 204 200 198 194 192 194 195 194 194 196 197 195 191 191 192 193 195 200 208 213 212 206 204 207 209 209 208 206 207 211 213 212 213 214 215 216 218 218 218 220 221 220 219 219 219 218 217 217 216 215 213 212 211 212 212 212 213 215 216 218 221 224
212 212 213 214 218 221 220 218 215 209 204 202 204 204 204 205 209 211 212 214 214 213 212 209 205 201 198 194 192 194 194 194 194 196 195 193 190 190 192 191 189 192 199 206 208 206 203 204 206 207 207 208 209 211 211 210 211 213 215 217 218 218 219 221 222 222 221 219 217 216 215 214 214 213 212 211 211 212 213 215 216 218 219 221 224 227
205 206 209 211 213 217 219 217 212 207 202 200 202 203 203 205 209 210 211 213 214 213 211 209 205 202 198 195 193 194 195 194 195 196 194 192 192 192 193 194 192 192 197 201 204 206 204 203 205 207 209 211 213 213 212 210 210 213 216 218 218 218 220 223 224 224 222 218 215 214 213 212 212 212 212 213 214 215 216 217 218 219 221 223 226 228
191 196 201 203 206 212 217 216 211 205 200 198 200 202 203 206 209 209 210 214 215 213 211 209 206 202 199 196 193 194 196 196 195 194 192 191 193 194 195 197 196 196 199 200 200 204 204 203 205 208 211 214 216 216 215 212 211 214 216 218 219 220 222 225 224 223 219 215 212 212 212 210 210 211 212 212 214 216 216 216 218 220 222 225 228 230
167 174 182 191 200 210 215 214 209 204 199 197 199 201 203 206 209 209 211 214 214 212 211 210 207 203 200 198 195 195 197 197 194 192 190 191 194 195 196 199 199 198 200 200 199 201 203 204 207 209 212 215 217 218 217 215 213 214 216 216 217 219 220 220 218 214 212 209 208 209 209 208 207 207 209 211 212 215 216 217 219 222 226 229 231 234
163 165 169 181 200 211 214 212 208 203 198 197 198 199 201 205 209 210 212 214 214 211 210 209 207 204 202 200 197 197 198 197 194 191 189 192 196 197 198 201 203 202 201 200 199 201 202 204 207 209 212 216 218 217 217 217 216 215 215 215 215 215 215 214 212 210 209 209 209 209 209 208 208 208 209 211 213 215 217 219 221 224 227 230 233 235
170 173 172 181 200 212 212 210 207 202 197 197 198 199 200 204 208 211 212 214 214 211 210 209 206 204 203 201 200 199 198 197 194 191 191 194 197 199 200 203 205 205 204 200 198 200 202 202 204 208 213 218 219 215 213 215 214 212 211 212 213 214 214 214 212 211 211 210 209 210 211 211 211 211 212 214 215 217 220 222 224 226 228 231 233 236
178 183 183 189 202 209 207 207 205 200 196 196 197 198 198 202 208 211 212 214 214 211 211 211 208 205 204 203 201 200 199 198 195 194 194 196 200 202 203 205 206 207 206 202 198 200 202 202 203 208 215 219 219 214 213 213 209 206 208 211 213 216 218 217 212 210 211 212 210 211 213 214 215 215 216 218 220 222 224 226 228 231 234 236 237 238
181 182 184 192 204 208 205 203 202 200 196 194 195 198 198 200 205 210 212 214 214 211 210 211 210 206 204 203 203 202 201 200 198 197 197 199 203 206 207 207 208 208 206 203 200 200 202 202 203 207 214 220 219 217 217 215 209 207 210 213 215 219 222 223 218 211 210 212 213 214 214 215 216 218 221 222 224 227 229 230 232 235 237 239 241 242
181 181 184 194 206 211 208 204 202 200 197 194 194 197 198 200 205 209 211 212 212 211 211 212 212 209 206 204 203 204 203 202 200 200 200 201 205 209 210 210 210 209 207 204 201 201 203 204 203 206 212 218 220 220 221 219 214 211 213 216 219 221 224 228 227 221 215 213 214 215 216 217 218 220 223 226 228 229 231 234 236 237 239 241 243 245
180 182 186 197 206 212 211 207 203 200 198 196 195 196 198 201 205 209 212 211 210 211 212 213 213 211 207 205 205 205 205 204 203 202 203 204 207 210 212 212 211 210 208 206 202 200 202 204 204 206 211 216 219 221 222 222 220 217 216 219 221 223 225 228 230 231 228 222 217 216 217 219 220 222 224 227 229 230 232 235 238 239 242 244 245 247
179 187 192 197 206 213 212 206 204 203 201 198 196 196 199 202 204 208 211 208 207 211 214 213 211 211 209 207 206 206 206 206 206 205 204 205 208 211 212 214 214 212 210 208 204 200 201 204 205 206 210 214 218 221 222 224 225 223 220 221 222 223 225 227 228 231 234 233 228 223 222 222 222 223 226 228 229 231 233 234 236 239 242 245 247 249